Regional Weather Roundup
Issued by NWS

Home | Current Version | Previous Version | Graphics & Text | Print | Product List | Glossary On
Versions: 1 2 3 4 5 6 7 8 9 10 11 12 13 14 15 16 17 18 19 20 21 22 23 24 25 26 27 28 29 30 31 32 33 34 35 36 37 38 39 40 41 42 43 44 45 46 47 48 49 50
000
ASUS43 KTOP 311259
RWRKS

WEATHER ROUNDUP FOR KANSAS
NATIONAL WEATHER SERVICE GOODLAND KS
800 AM CDT MON AUG 31 2015

NOTE:  "FAIR" INDICATES FEW OR NO CLOUDS BELOW 12,000 FEET WITH NO
SIGNIFICANT WEATHER AND/OR OBSTRUCTIONS TO VISIBILITY.

KSZ001>006-013>018-027>032-041>047-311400-
NORTHWEST KANSAS

CITY           SKY/WX    TMP DP  RH WIND       PRES   REMARKS
GOODLAND       CLEAR     57  53  86 S8        29.94R
HAYS           CLEAR     63  55  77 SE7       29.94R
HILL CITY      CLEAR     64  61  90 SE5       29.93R FOG
RUSSELL        SUNNY     67  66  97 SE10      29.93S FOG
$$

KSZ061>065-074>080-084>089-311400-
SOUTHWEST KANSAS

CITY           SKY/WX    TMP DP  RH WIND       PRES   REMARKS
DODGE CITY     CLEAR     61  59  93 S10       29.96R FOG
ELKHART          N/A     61  49  65 S7          N/A
GARDEN CITY    CLEAR     61  55  81 SE9       29.94R
GREAT BEND     CLOUDY    66  63  88 S8        29.95R VSB 1/2
LIBERAL        CLEAR     59  52  77 S6        29.97R
PRATT          DRZL/FOG  63  63 100 CALM      29.97R VSB<1/4
$$

KSZ066>073-081>083-090>101-311400-
SOUTHEAST KANSAS

CITY           SKY/WX    TMP DP  RH WIND       PRES   REMARKS
CHANUTE        SUNNY     69  68  96 SE5       30.00R FOG
COFFEYVILLE    SUNNY     68  67  96 SE3       29.99R
HUTCHINSON     FOG       67  65  93 SE5       29.97R VSB 1/4
NEWTON         CLOUDY    66  63  88 SE8       30.00R VSB 1/2
PARSONS        SUNNY     70  68  93 SE3       30.00R
WICHITA INTL   PTSUNNY   71  67  87 SE7       29.96R
WICHITA JABRA  SUNNY     67  66  97 SE5       29.97R FOG
WINFIELD       SUNNY     69  66  90 SE7       29.98R
$$

KSZ007>012-019>026-033>040-048>060-102>105-311400-
NORTHEAST KANSAS

CITY           SKY/WX    TMP DP  RH WIND       PRES   REMARKS
CONCORDIA      SUNNY     67  66  97 S9        29.95S FOG
EMPORIA        FOG       65  65 100 S7        29.98R VSB 1/4
LAWRENCE       CLOUDY    68  66  93 CALM      29.98S FOG
MANHATTAN      SUNNY     65  65 100 CALM      29.96R FOG
OLATHE IND     MOSUNNY   71  70  96 S6        30.00R FOG
OLATHE EXE     MOSUNNY   70  69  97 S6        29.99R FOG
SALINA         MOSUNNY   64  62  93 CALM      29.96R FOG
TOPEKA BILLARD PTSUNNY   66  66 100 CALM      29.98R FOG
TOPEKA FORBES  FOG       67  65  93 CALM      29.98R VSB 1/4
$$



USA.gov is the U.S. government's official web portal to all federal, state and local government web resources and services.